NW1E Weather Reports


Display with metric or nautical units.
time (UTC)temp
F
wind
direction
speed
MPH
gust
MPH
rain 1hr
in
rain 24hr
in
rain mn
in
humidity
%
barometer
mb
20260503024801 73 264 0.0 0.0 0.05 0.35 0.40 92 1012.9
20260503024259 73 197 0.0 4.0 0.05 0.35 0.40 92 1013.0
20260503023757 73 180 0.0 4.0 0.05 0.35 0.40 92 1012.3
20260503023257 73 193 1.0 3.0 0.05 0.35 0.40 92 1011.8
20260503022753 74 178 0.0 3.0 0.05 0.35 0.39 92 1012.2
20260503022251 74 206 0.0 1.0 0.04 0.35 0.39 92 1012.6
20260503022052 74 214 0.0 1.0 0.03 0.35 0.38 92 1013.1
20260503021614 74 0.0 0.0 0.02 0.35 0.37 92 1013.0
20260503020749 74 0.0 4.0 0.01 0.35 0.36 92 1013.2
20260503020251 74 231 1.0 6.0 0.00 0.35 0.35 92 1013.2
20260503015749 74 235 2.0 6.0 0.00 0.35 0.35 92 1013.2
20260503015250 74 0.0 0.0 0.00 0.35 0.35 92 1013.1
20260503014749 74 0.0 0.0 0.00 0.35 0.35 92 1013.0
20260503014246 74 0.0 0.0 0.00 0.35 0.35 92 1012.7
20260503014045 74 0.0 5.0 0.00 0.35 0.35 92 1012.0
20260503013540 74 164 1.0 5.0 0.00 0.35 0.35 92 1011.6
20260503012744 74 178 0.0 3.0 0.00 0.35 0.35 92 1012.1
20260503012248 74 231 0.0 5.0 0.00 0.35 0.35 92 1012.5
20260503011733 74 217 2.0 5.0 0.00 0.35 0.35 92 1012.6
20260503011231 74 197 0.0 3.0 0.00 0.35 0.35 92 1012.4
20260503010735 74 175 0.0 2.0 0.01 0.35 0.35 92 1012.2
20260503010525 73 172 0.0 1.0 0.02 0.35 0.35 92 1012.3
20260503005733 73 169 0.0 1.0 0.02 0.33 0.35 92 1012.3
20260503005232 73 169 0.0 0.0 0.02 0.33 0.35 92 1012.3
20260503005025 73 169 0.0 0.0 0.02 0.33 0.35 92 1012.2
20260503004234 73 169 0.0 0.0 0.02 0.33 0.35 92 1012.5
20260503003728 73 169 0.0 0.0 0.02 0.33 0.35 92 1012.2
20260503003227 73 169 0.0 0.0 0.03 0.33 0.35 91 1012.3
20260503002728 73 169 0.0 0.0 0.06 0.33 0.35 91 1012.3
20260503002228 73 169 0.0 0.0 0.06 0.33 0.35 91 1012.2
20260503001734 73 169 0.0 0.0 0.06 0.33 0.35 91 1012.1
20260503001228 73 169 0.0 0.0 0.06 0.33 0.35 91 1012.0
20260503000728 73 169 0.0 0.0 0.05 0.33 0.34 91 1012.3
20260503000228 73 169 0.0 1.0 0.04 0.33 0.33 91 1012.3
20260503000030 73 61 0.0 2.0 0.04 0.29 0.33 91 1012.0
20260502235225 74 56 0.0 2.0 0.04 0.29 0.33 91 1011.5
20260502234726 74 47 0.0 2.0 0.04 0.29 0.33 91 1011.7
20260502234221 75 30 0.0 0.0 0.04 0.29 0.33 91 1012.3
20260502233723 75 30 0.0 0.0 0.04 0.29 0.33 91 1012.3
20260502233205 75 289 0.0 0.0 0.03 0.29 0.32 91 1012.3
20260502233007 75 278 0.0 0.0 0.00 0.29 0.29 91 1012.6
20260502232514 75 272 0.0 0.0 0.00 0.29 0.29 90 1012.7
20260502231703 75 309 0.0 0.0 0.00 0.29 0.29 91 1012.5
20260502231203 75 312 0.0 0.0 0.04 0.29 0.29 91 1012.4
20260502230706 75 312 0.0 0.0 0.29 0.29 0.29 91 1012.4
20260502230204 75 320 0.0 0.0 0.29 0.29 0.29 91 1012.3
20260502225702 75 313 0.0 3.0 0.29 0.00 0.29 90 1012.2
20260502225203 75 329 0.0 3.0 0.29 0.00 0.29 90 1012.1
20260502224703 75 295 0.0 10.0 0.29 0.00 0.29 90 1012.0
20260502224515 75 312 3.0 11.0 0.29 0.00 0.29 90 1012.0
20260502223703 75 344 3.0 11.0 0.29 0.00 0.29 90 1012.0
20260502223204 75 321 4.0 9.0 0.29 0.00 0.29 90 1012.0
20260502222705 75 317 0.0 1.0 0.29 0.00 0.29 89 1012.0
20260502222205 75 314 0.0 6.0 0.29 0.00 0.29 88 1012.2
20260502222023 75 326 2.0 24.0 0.29 0.00 0.29 84 1012.0
20260502221201 78 341 5.0 24.0 0.25 0.00 0.23 78 1011.7
20260502220700 82 296 7.0 12.0 0.00 0.00 0.00 81 1012.0
20260502220159 83 265 9.0 13.0 0.00 0.00 0.00 81 1010.8
20260502215659 83 231 9.0 13.0 0.00 0.00 0.00 80 1010.7
20260502215201 83 262 8.0 17.0 0.00 0.00 0.00 80 1010.9
20260502214656 83 206 7.0 17.0 0.00 0.00 0.00 79 1010.8
20260502214158 83 244 7.0 13.0 0.00 0.00 0.00 79 1010.9
20260502213658 83 300 5.0 15.0 0.00 0.00 0.00 78 1011.1
20260502213308 83 233 2.0 13.0 0.00 0.00 0.00 79 1010.9
20260502213239 83 259 6.0 15.0 0.00 0.00 0.00 78 1011.1
20260502212138 83 259 5.0 13.0 0.00 0.00 0.00 78 1011.0
20260502211637 84 250 6.0 13.0 0.00 0.00 0.00 77 1010.9
20260502211136 84 250 7.0 15.0 0.00 0.00 0.00 76 1010.8
20260502210634 84 258 7.0 18.0 0.00 0.00 0.00 74 1010.7
20260502210132 84 247 8.0 18.0 0.00 0.00 0.00 73 1010.6
20260502205634 84 261 4.0 15.0 0.00 0.00 0.00 74 1010.6
20260502205431 84 264 9.0 15.0 0.00 0.00 0.00 73 1010.6
20260502204608 85 237 9.0 16.0 0.00 0.00 0.00 72 1010.7
20260502204106 85 298 6.0 16.0 0.00 0.00 0.00 72 1010.7
20260502203609 86 268 8.0 18.0 0.00 0.00 0.00 70 1010.6
20260502203106 87 268 10.0 19.0 0.00 0.00 0.00 69 1010.6
20260502202606 87 238 10.0 19.0 0.00 0.00 0.00 67 1010.5
20260502202104 88 243 8.0 20.0 0.00 0.00 0.00 68 1010.5
20260502201606 89 214 5.0 20.0 0.00 0.00 0.00 68 1010.6
20260502201408 89 264 7.0 14.0 0.00 0.00 0.00 69 1010.6
20260502200603 88 257 3.0 15.0 0.00 0.00 0.00 72 1010.5
20260502200107 87 245 9.0 20.0 0.00 0.00 0.00 71 1010.5
20260502195916 87 224 9.0 20.0 0.00 0.00 0.00 70 1010.6
20260502195101 87 247 14.0 20.0 0.00 0.00 0.00 71 1010.7
20260502195029 88 261 12.0 21.0 0.00 0.00 0.00 69 1010.7
20260502195022 87 254 10.0 21.0 0.00 0.00 0.00 70 1010.7
20260502193604 88 247 6.0 21.0 0.00 0.00 0.00 69 1010.7
20260502193104 88 220 13.0 20.0 0.00 0.00 0.00 67 1010.7
20260502192604 88 226 9.0 20.0 0.00 0.00 0.00 69 1010.8
20260502192103 88 255 10.0 20.0 0.00 0.00 0.00 70 1011.0
20260502191604 89 241 12.0 22.0 0.00 0.00 0.00 67 1011.1
20260502191104 89 248 2.0 22.0 0.00 0.00 0.00 70 1011.1
20260502190954 89 243 8.0 17.0 0.00 0.00 0.00 69 1011.1
20260502190112 88 265 10.0 17.0 0.00 0.00 0.00 69 1011.1
20260502185916 88 254 7.0 15.0 0.00 0.00 0.00 69 1011.2
20260502185409 88 245 8.0 19.0 0.00 0.00 0.00 70 1011.4
20260502184603 89 235 13.0 19.0 0.00 0.00 0.00 68 1011.3
20260502184104 88 240 8.0 16.0 0.00 0.00 0.00 70 1011.3
20260502183605 88 228 9.0 19.0 0.00 0.00 0.00 72 1011.3
20260502183103 88 268 12.0 21.0 0.00 0.00 0.00 72 1011.5
20260502182603 88 252 15.0 21.0 0.00 0.00 0.00 72 1011.7
20260502182101 88 237 11.0 18.0 0.00 0.00 0.00 71 1011.7
20260502181604 89 255 10.0 17.0 0.00 0.00 0.00 71 1011.7
20260502181104 88 276 4.0 17.0 0.00 0.00 0.00 73 1011.8
20260502180605 88 237 11.0 20.0 0.00 0.00 0.00 73 1011.9
20260502164031 88 252 10.0 22.0 0.00 0.00 0.00 71 1012.1
20260502163531 88 276 10.0 22.0 0.00 0.00 0.00 70 1012.0
20260502163034 89 231 7.0 18.0 0.00 0.00 0.00 70 1011.9
20260502162532 88 233 10.0 19.0 0.00 0.00 0.00 72 1011.9
20260502162030 88 227 14.0 22.0 0.00 0.00 0.00 70 1011.8
20260502161526 88 295 14.0 22.0 0.00 0.00 0.00 71 1011.9
20260502161029 88 268 11.0 21.0 0.00 0.00 0.00 69 1011.9
20260502160510 89 250 14.0 20.0 0.00 0.00 0.00 70 1011.7
20260502152245 88 212 14.0 20.0 0.00 0.00 0.00 70 1011.5
20260502151448 88 231 6.0 18.0 0.00 0.00 0.00 70 1011.5
20260502150948 87 223 10.0 21.0 0.00 0.00 0.00 69 1011.5
20260502150446 87 257 10.0 22.0 0.00 0.00 0.00 71 1011.2
20260502150257 87 212 13.0 26.0 0.00 0.00 0.00 70 1011.1
20260502130405 80 207 8.0 14.0 0.00 0.00 0.00 86 1010.8
20260502123351 76 193 2.0 9.0 0.00 0.00 0.00 91 1010.7
20260502122843 76 183 1.0 10.0 0.00 0.00 0.00 91 1010.7
20260502122346 75 186 5.0 10.0 0.00 0.00 0.00 92 1010.8
20260502121844 75 166 2.0 7.0 0.00 0.00 0.00 92 1010.8
20260502121344 74 166 0.0 3.0 0.00 0.00 0.00 92 1010.6
20260502120847 74 178 0.0 3.0 0.00 0.00 0.00 93 1010.6
20260502120343 73 173 0.0 3.0 0.00 0.00 0.00 93 1010.6
20260502115842 73 164 0.0 1.0 0.00 0.00 0.00 93 1010.7
20260502115341 72 162 0.0 0.0 0.00 0.00 0.00 93 1010.7
20260502114841 72 144 0.0 1.0 0.00 0.00 0.00 93 1010.6
20260502114344 71 166 0.0 3.0 0.00 0.00 0.00 93 1010.4
20260502113843 71 169 0.0 3.0 0.00 0.00 0.00 93 1010.6
20260502113343 70 154 0.0 0.0 0.00 0.00 0.00 93 1010.6
20260502112840 70 149 0.0 0.0 0.00 0.00 0.00 93 1010.5
20260502112341 70 149 0.0 0.0 0.00 0.00 0.00 93 1010.6
20260502111840 69 151 0.0 0.0 0.00 0.00 0.00 93 1010.6
20260502111641 69 151 0.0 0.0 0.00 0.00 0.00 93 1010.6
20260502110841 69 147 0.0 1.0 0.00 0.00 0.00 93 1010.6
20260502110343 69 147 0.0 1.0 0.00 0.00 0.00 93 1010.6
20260502105843 69 145 0.0 0.0 0.00 0.00 0.00 93 1010.5
20260502105340 69 145 0.0 0.0 0.00 0.00 0.00 93 1010.4
20260502104843 69 145 0.0 0.0 0.00 0.00 0.00 93 1010.4
20260502104334 69 147 0.0 0.0 0.00 0.00 0.00 93 1010.5
20260502104127 69 147 0.0 0.0 0.00 0.00 0.00 93 1010.5
20260502103628 68 147 0.0 2.0 0.00 0.00 0.00 92 1010.5
20260502103128 68 147 0.0 2.0 0.00 0.00 0.00 92 1010.6
20260502102648 68 148 0.0 0.0 0.00 0.00 0.00 92 1010.8
20260502102349 68 148 0.0 0.0 0.00 0.00 0.00 92 1010.8
20260502101331 68 148 0.0 0.0 0.00 0.00 0.00 92 1010.7
20260502101122 68 148 0.0 0.0 0.00 0.00 0.00 92 1010.7
20260502100334 68 148 0.0 0.0 0.00 0.00 0.00 92 1010.7
20260502090327 69 149 0.0 1.0 0.00 0.00 0.00 92 1010.9
20260502071242 68 257 0.0 0.0 0.00 0.00 0.00 93 1010.7
20260502071033 68 257 0.0 0.0 0.00 0.00 0.00 93 1010.7
20260502070240 68 257 0.0 0.0 0.00 0.00 0.00 92 1010.7
20260502065740 68 257 0.0 0.0 0.00 0.00 0.00 92 1010.7
20260502065239 68 257 0.0 0.0 0.00 0.00 0.00 92 1010.9
20260502064737 68 257 0.0 0.0 0.00 0.00 0.00 92 1010.8
20260502064238 68 0.0 0.0 0.00 0.00 0.00 92 1010.9
20260502063737 68 257 0.0 0.0 0.00 0.00 0.00 92 1011.0
20260502063236 68 257 0.0 0.0 0.00 0.00 0.00 92 1011.0
20260502063030 68 257 0.0 0.0 0.00 0.00 0.00 92 1011.1
20260502062235 68 257 0.0 0.0 0.00 0.00 0.00 92 1011.0
20260502061733 69 257 0.0 0.0 0.00 0.00 0.00 92 1011.1
20260502061230 69 257 0.0 0.0 0.00 0.00 0.00 92 1011.2
20260502060732 69 257 0.0 0.0 0.00 0.00 0.00 92 1011.2
20260502060231 69 257 0.0 0.0 0.00 0.00 0.00 92 1011.2
20260502055738 69 257 0.0 0.0 0.00 0.00 0.00 92 1011.1
20260502055232 69 257 0.0 0.0 0.00 0.00 0.00 92 1011.2
20260502054730 69 257 0.0 0.0 0.00 0.00 0.00 92 1011.4
20260502054401 69 257 0.0 0.0 0.00 0.00 0.00 92 1011.6
20260502054324 69 257 0.0 0.0 0.00 0.00 0.00 92 1011.4
20260502053228 69 257 0.0 0.0 0.00 0.00 0.00 91 1011.6
20260502053130 69 257 0.0 0.0 0.00 0.00 0.00 91 1011.7
20260502052800 69 257 0.0 0.0 0.00 0.00 0.00 92 1011.9
20260502051717 69 257 0.0 0.0 0.00 0.00 0.00 91 1011.8
20260502051213 69 257 0.0 0.0 0.00 0.00 0.00 91 1011.8
20260502050714 69 257 0.0 0.0 0.00 0.00 0.00 91 1011.9
20260502050211 69 257 0.0 0.0 0.00 0.00 0.00 91 1011.8
20260502050013 69 257 0.0 0.0 0.00 0.00 0.00 91 1012.0
20260502045207 69 257 0.0 0.0 0.00 0.00 0.00 90 1011.9
20260502044704 69 257 0.0 0.0 0.00 0.00 0.00 90 1011.9
20260502044204 69 257 0.0 0.0 0.00 0.00 0.00 90 1011.8
20260502043705 69 257 0.0 0.0 0.00 0.00 0.00 90 1011.9
20260502043204 69 257 0.0 0.0 0.00 0.00 0.00 90 1011.9
20260502042704 69 257 0.0 0.0 0.00 0.00 0.00 90 1011.8
20260502042204 69 257 0.0 0.0 0.00 0.00 0.00 89 1011.8
20260502041704 69 257 0.0 0.0 0.00 0.00 0.00 89 1011.8
20260502041202 70 257 0.0 0.0 0.00 0.00 0.00 90 1011.8
20260502040704 70 257 0.0 0.0 0.00 0.00 0.00 90 1011.8
20260502040201 70 257 0.0 0.0 0.00 0.00 0.00 89 1011.9
20260502035940 70 257 0.0 0.0 0.00 0.00 0.00 89 1011.9
20260502035150 70 257 0.0 0.0 0.00 0.00 0.00 90 1011.9
20260502035023 70 257 0.0 0.0 0.00 0.00 0.00 89 1011.8
20260502035016 70 257 0.0 0.0 0.00 0.00 0.00 89 1011.8
20260502033636 70 257 0.0 0.0 0.00 0.00 0.00 89 1011.8
20260502033138 70 257 0.0 0.0 0.00 0.00 0.00 89 1011.8
20260502032633 70 257 0.0 0.0 0.00 0.00 0.00 89 1011.8
20260502032134 70 257 0.0 0.0 0.00 0.00 0.00 88 1011.8
20260502031631 70 257 0.0 0.0 0.00 0.00 0.00 88 1011.8
20260502031131 70 257 0.0 0.0 0.00 0.00 0.00 88 1011.8
20260502030632 70 257 0.0 0.0 0.00 0.00 0.00 87 1011.9
20260502030134 70 257 0.0 0.0 0.00 0.00 0.00 87 1011.9
20260502025633 71 257 0.0 0.0 0.00 0.00 0.00 87 1012.0